Starlink 33622

operational
NORAD ID: 63066 Int'l Des: 2025-035 Owner: SPXS Country: US Constellation: starlink
LEOCIRCULAR

Über Starlink 33622

Beschreibung wird geladen...

Live-Position

3D-Globus wird geladen...

Nächste Überflüge

Höhenverlauf

Altitude vs Time

uPlot chart will show altitude changes over time

Zweizeiliger Elementsatz

1 63066U 25035Q 25352.09278362 .00024185 00000-0 88535-3 0 9992
2 63066 43.0000 247.6263 0001566 259.8754 100.1921 15.27586060 47250
Epoch: 18. Dez. 2025 • Age: 45 hours

Aktueller Status

Höhe 483.6 km
Geschwindigkeit 7.62 km/s
Subsatellitenpunkt -7.93°S, 144.31°E
Startdatum 21. Feb. 2025
Alter 0.8 years
Typ internet

Technische Details

Klassifizierung Payload
Masse 575.00 kg
Trockenmasse 530.00 kg
Gesamtmasse 575.00 kg
Länge 0.30 m
Durchmesser 4.10 m
Spannweite 29.00 m
Form Box + pan
Hersteller SPXS
Bus-Typ Starlink V2MO
Phasenstatus In Orbit
Besitzer/Staat SPXS/US

Große Konstellationen

Loading constellations...